Location: Fort Worth, Tx
(32.7431°N, 97.3695°W)
Time: 18:37:50
(UTC-04:00)

Transit 4A - Pass Details

Date: 28 February 2024
Orbit: 871 x 972 km, 66.8° (Epoch: 21 April)

Event Time Altitude Azimuth Distance (km) Brightness Sun altitude
Rises 11:43:43 0° 330° (NNW) 3,472 10.4 40.5°
Reaches altitude 10° 11:46:14 10° 327° (NNW) 2,524 9.8 40.8°
Maximum altitude 11:51:57 61° 248° (WSW) 985 8.6 41.6°
Drops below altitude 10° 11:57:39 10° 169° (S) 2,514 11.1 42.3°
Sets 12:00:09 0° 166° (SSE) 3,456 11.6 42.6°
